Fort Wayne International Airport Fort Wayne US
ICAO: KFWA
IATA: FWA
Category: Large
Scheduled Services: Yes

Elevation: 814 ft
TransAlt. 18000 ft.

Airport Communications:
APP/DEP:127.2
ATIS:121.25
CLNC DEL:124.75
GND:121.9
122FW COMD POST OPS:138.4
TERRE HAUTE RDO:122.2
TWR:119.1
UNICOM:122.95

KFWA Zoom In..

Runways:

(A) RW 05 length 11981 ft width 150 ft
ILS 111.90 / hdg 47

(B) RW 09 length 4001 ft width 75 ft
---- / hdg 93

(C) RW 14 length 8002 ft width 150 ft
---- / hdg 138

(D) RW 23 length 11981 ft width 150 ft
---- / hdg 227

(E) RW 27 length 4001 ft width 75 ft
---- / hdg 273

(F) RW 32 length 8002 ft width 150 ft
ILS 109.90 / hdg 318

Location; KFWA
Day. 25 / Time. 10.32 Zulu
* Altimeter: 29.93
* Temperature: 11° c. 51.8°f.
* Wind from: 330° Speed 06 kn.
Dewpoint: 10° c.
Visibility: 5 Statute Miles.
Clouds: Broken 700 ft.
Clouds: Broken 1500 ft.
Clouds: Overcast 3000 ft.
Conditions: Mist.

KFWA 251032Z 33006KT 5SM BR BKN007 BKN015 OVC030 11/10 A2993 RMK AO2 T01060100


Wind From 330°
Speed 06 kn.

  YouTube Music Video
 
jpsmedia.com for Web Design  worldairports.se 2018   terms of use